TimeCST,TemperatureF,Dew PointF,Humidity,Sea Level PressureIn,VisibilityMPH,Wind Direction,Wind SpeedMPH,Gust SpeedMPH,PrecipitationIn,Events,Conditions,WindDirDegrees,DateUTC
12:15 AM,19.4,12.2,74,29.94,1.8,North,20.7,24.2,N/A,,Clear,360,2012-12-20 06:15:00
12:55 AM,17.6,12.2,79,29.93,2.0,North,19.6,-,N/A,,Clear,360,2012-12-20 06:55:00
1:15 AM,17.6,12.2,79,29.92,2.0,North,17.3,-,N/A,,Clear,360,2012-12-20 07:15:00
1:35 AM,17.6,12.2,79,29.92,2.0,North,19.6,-,N/A,,Clear,360,2012-12-20 07:35:00
1:55 AM,17.6,12.2,79,29.92,2.5,North,20.7,-,N/A,,Clear,360,2012-12-20 07:55:00
2:15 AM,17.6,12.2,79,29.91,3.0,North,20.7,-,N/A,,Clear,360,2012-12-20 08:15:00
2:35 AM,19.4,12.2,74,29.91,2.5,North,19.6,-,N/A,,Mostly Cloudy,350,2012-12-20 08:35:00
2:55 AM,17.6,12.2,79,29.91,2.5,North,20.7,-,N/A,,Overcast,360,2012-12-20 08:55:00
3:15 AM,17.6,12.2,79,29.91,2.5,North,18.4,28.8,N/A,,Overcast,350,2012-12-20 09:15:00
3:35 AM,17.6,12.2,79,29.90,2.0,North,20.7,27.6,N/A,,Overcast,360,2012-12-20 09:35:00
3:55 AM,19.4,12.2,74,29.90,2.5,North,21.9,28.8,N/A,,Overcast,360,2012-12-20 09:55:00
4:15 AM,19.4,12.2,74,29.89,2.0,North,23.0,31.1,N/A,,Overcast,360,2012-12-20 10:15:00
4:35 AM,19.4,12.2,74,29.89,1.8,North,24.2,29.9,N/A,,Overcast,360,2012-12-20 10:35:00
4:55 AM,19.4,12.2,74,29.89,1.8,North,24.2,31.1,N/A,,Overcast,360,2012-12-20 10:55:00
5:15 AM,19.4,12.2,74,29.90,1.5,North,23.0,31.1,N/A,,Overcast,360,2012-12-20 11:15:00
5:35 AM,19.4,12.2,74,29.90,1.8,North,23.0,33.4,N/A,,Overcast,350,2012-12-20 11:35:00
5:55 AM,-9999,-9999,N/A,29.90,1.5,North,23.0,33.4,N/A,,Overcast,350,2012-12-20 11:55:00
6:15 AM,19.4,12.2,74,29.91,1.5,North,26.5,-,N/A,,Overcast,350,2012-12-20 12:15:00
6:35 AM,-9999,-9999,N/A,29.92,1.8,NNW,26.5,32.2,N/A,,Overcast,340,2012-12-20 12:35:00
6:55 AM,-9999,-9999,N/A,29.92,2.5,NNW,24.2,31.1,N/A,,Overcast,340,2012-12-20 12:55:00
7:15 AM,19.4,12.2,74,29.93,2.0,NNW,25.3,32.2,N/A,,Overcast,340,2012-12-20 13:15:00
7:35 AM,-9999,-9999,N/A,29.93,1.8,NNW,27.6,34.5,N/A,,Overcast,340,2012-12-20 13:35:00
7:55 AM,-9999,-9999,N/A,29.93,1.5,NNW,26.5,31.1,N/A,,Overcast,340,2012-12-20 13:55:00
8:15 AM,-9999,-9999,N/A,29.94,1.8,NNW,28.8,33.4,N/A,,Overcast,340,2012-12-20 14:15:00
8:35 AM,15.8,8.6,73,29.94,2.5,NNW,25.3,-,N/A,,Overcast,340,2012-12-20 14:35:00
8:55 AM,-9999,-9999,N/A,29.94,2.0,NNW,26.5,-,N/A,,Overcast,340,2012-12-20 14:55:00
9:15 AM,-9999,-9999,N/A,29.93,1.8,NNW,25.3,-,N/A,,Overcast,340,2012-12-20 15:15:00
9:35 AM,-9999,-9999,N/A,29.93,1.8,NNW,25.3,34.5,N/A,,Overcast,340,2012-12-20 15:35:00
9:55 AM,17.6,12.2,79,29.95,2.0,NNW,25.3,29.9,N/A,,Overcast,340,2012-12-20 15:55:00
10:15 AM,-9999,-9999,N/A,29.95,1.2,NNW,23.0,31.1,N/A,,Scattered Clouds,340,2012-12-20 16:15:00
10:35 AM,-9999,-9999,N/A,29.95,1.0,NNW,25.3,28.8,N/A,,Clear,330,2012-12-20 16:35:00
10:55 AM,-9999,-9999,N/A,29.95,1.0,NNW,25.3,33.4,N/A,,Clear,330,2012-12-20 16:55:00
11:15 AM,-9999,-9999,N/A,29.95,1.2,NNW,26.5,-,N/A,,Clear,330,2012-12-20 17:15:00
11:35 AM,-9999,-9999,N/A,29.95,1.2,NNW,27.6,34.5,N/A,,Clear,330,2012-12-20 17:35:00
11:55 AM,-9999,-9999,N/A,29.95,1.2,NNW,25.3,32.2,N/A,,Clear,330,2012-12-20 17:55:00
12:15 PM,-9999,-9999,N/A,29.95,1.2,NNW,23.0,-,N/A,,Clear,330,2012-12-20 18:15:00
12:35 PM,-9999,-9999,N/A,29.95,1.5,NNW,26.5,29.9,N/A,,Clear,330,2012-12-20 18:35:00
12:55 PM,19.4,10.4,68,29.95,1.5,NNW,26.5,34.5,N/A,,Clear,330,2012-12-20 18:55:00
1:15 PM,17.6,8.6,68,29.96,4.0,NNW,26.5,-,N/A,,Clear,330,2012-12-20 19:15:00
1:35 PM,17.6,10.4,73,29.96,3.0,NW,25.3,29.9,N/A,,Clear,320,2012-12-20 19:35:00
1:55 PM,17.6,8.6,68,29.96,5.0,NW,24.2,31.1,N/A,,Clear,320,2012-12-20 19:55:00
2:15 PM,17.6,8.6,68,29.96,5.0,NW,23.0,-,N/A,,Clear,320,2012-12-20 20:15:00
2:35 PM,17.6,8.6,68,29.97,7.0,NW,21.9,26.5,N/A,,Clear,320,2012-12-20 20:35:00
3:15 PM,15.8,6.8,68,29.99,9.0,NW,21.9,27.6,N/A,,Clear,320,2012-12-20 21:15:00
3:35 PM,15.8,8.6,73,30.00,10.0,NW,17.3,-,N/A,,Clear,320,2012-12-20 21:35:00
3:55 PM,15.8,8.6,73,30.00,10.0,NW,19.6,23.0,N/A,,Clear,320,2012-12-20 21:55:00
4:15 PM,15.8,6.8,68,30.00,10.0,NW,20.7,-,N/A,,Clear,320,2012-12-20 22:15:00
4:35 PM,15.8,6.8,68,30.01,10.0,NW,17.3,-,N/A,,Clear,310,2012-12-20 22:35:00
4:55 PM,12.2,3.2,67,30.02,10.0,WNW,16.1,-,N/A,,Clear,300,2012-12-20 22:55:00
5:15 PM,12.2,3.2,67,30.02,10.0,NW,17.3,-,N/A,,Clear,310,2012-12-20 23:15:00
5:35 PM,12.2,3.2,67,30.02,10.0,NW,17.3,-,N/A,,Clear,310,2012-12-20 23:35:00
5:55 PM,12.2,3.2,67,30.03,10.0,NW,17.3,-,N/A,,Clear,310,2012-12-20 23:55:00
6:15 PM,10.4,3.2,73,30.03,10.0,NW,16.1,-,N/A,,Clear,310,2012-12-21 00:15:00
6:35 PM,10.4,1.4,67,30.03,10.0,NW,19.6,-,N/A,,Clear,320,2012-12-21 00:35:00
6:55 PM,10.4,3.2,73,30.04,10.0,NW,19.6,-,N/A,,Clear,320,2012-12-21 00:55:00
7:15 PM,10.4,3.2,73,30.05,10.0,NW,18.4,-,N/A,,Clear,320,2012-12-21 01:15:00
7:35 PM,10.4,3.2,73,30.05,10.0,NW,19.6,-,N/A,,Clear,320,2012-12-21 01:35:00
7:55 PM,10.4,3.2,73,30.06,10.0,NW,18.4,23.0,N/A,,Clear,320,2012-12-21 01:55:00
8:15 PM,10.4,1.4,67,30.06,10.0,NW,17.3,-,N/A,,Clear,320,2012-12-21 02:15:00
8:35 PM,10.4,3.2,73,30.06,10.0,NW,18.4,-,N/A,,Clear,320,2012-12-21 02:35:00
8:55 PM,10.4,1.4,67,30.06,10.0,NW,17.3,-,N/A,,Clear,320,2012-12-21 02:55:00
9:15 PM,10.4,1.4,67,30.07,10.0,NW,17.3,-,N/A,,Clear,320,2012-12-21 03:15:00
9:35 PM,10.4,1.4,67,30.07,10.0,NW,16.1,-,N/A,,Clear,320,2012-12-21 03:35:00
9:55 PM,10.4,1.4,67,30.08,10.0,NW,16.1,-,N/A,,Clear,320,2012-12-21 03:55:00
10:15 PM,8.6,1.4,73,30.09,10.0,NNW,17.3,-,N/A,,Clear,330,2012-12-21 04:15:00
10:35 PM,8.6,1.4,73,30.10,10.0,NNW,16.1,-,N/A,,Clear,330,2012-12-21 04:35:00
10:55 PM,8.6,-0.4,67,30.11,10.0,NNW,16.1,-,N/A,,Clear,330,2012-12-21 04:55:00
11:15 PM,8.6,1.4,73,30.11,10.0,NNW,17.3,-,N/A,,Clear,330,2012-12-21 05:15:00
11:35 PM,8.6,-0.4,67,30.12,10.0,NW,16.1,-,N/A,,Clear,320,2012-12-21 05:35:00
11:55 PM,6.8,-0.4,72,30.12,10.0,NNW,12.7,-,N/A,,Clear,330,2012-12-21 05:55:00